User: anonymous   Login
Location: Felsheim
(48.7267°N, 10.7386°E)
Time: 02:08:03
(UTC+00:00)
Language:

ALOS 2 - Orbit

View from above orbital plane
View from above orbital plane
View from above satellite
View from above satellite

Ground track
Ground track

The orbit data is extracted from the following two-line orbital elements,

1 39766U 14029A   20189.73334810 -.00000051  00000-0  13238-7 0  9997
2 39766  97.9222 286.0392 0001412  85.9205 274.2158 14.79472189330693
Epoch (UTC): 07 July 2020 17:36:01
Eccentricity: 0.0001412
inclination: 97.9222°
perigee height: 630 km
apogee height: 632 km
right ascension of ascending node: 286.0392°
argument of perigee: 85.9205°
revolutions per day: 14.79472189
mean anomaly at epoch: 274.2158°
orbit number at epoch: 33069

The dashed part of the orbit path shows where the satellite is in the earth's shadow,  

DLR